"Period start","avg(HW err(1)/warn(2) (#))","avg(Visibility (m))","avg(Weather code (#))","avg(Precip intensity (mm/h))","min(HW err(1)/warn(2) (#))","max(HW err(1)/warn(2) (#))","std(HW err(1)/warn(2) (#))","med(HW err(1)/warn(2) (#))","min(Visibility (m))","max(Visibility (m))","std(Visibility (m))","med(Visibility (m))","min(Weather code (#))","max(Weather code (#))","std(Weather code (#))","med(Weather code (#))","min(Precip intensity (mm/h))","max(Precip intensity (mm/h))","std(Precip intensity (mm/h))","med(Precip intensity (mm/h))"
2017-01-25 00:00:00,2,21564,0,0.00,2,2,0,2,14850,31655,6428,17760,0,0,0,0,0.00,0.00,0.00,0.00
2017-01-25 00:10:00,2,19467,0,0.00,2,2,0,2,6823,27718,5876,21007,0,0,0,0,0.00,0.00,0.00,0.00
2017-01-25 00:20:00,2,28785,0,0.00,2,2,0,2,24024,33951,3189,28528,0,0,0,0,0.00,0.00,0.00,0.00
2017-01-25 00:30:00,2,30822,0,0.00,2,2,0,2,24960,36145,4350,32856,0,0,0,0,0.00,0.00,0.00,0.00
2017-01-25 00:40:00,2,23386,0,0.00,2,2,0,2,9811,29918,6406,24549,0,0,0,0,0.00,0.00,0.00,0.00
2017-01-25 00:50:00,2,17899,0,0.00,2,2,0,2,5582,29867,6138,18234,0,0,0,0,0.00,0.00,0.00,0.00
2017-01-25 01:00:00,2,26762,0,0.00,2,2,0,2,19168,31924,3648,26433,0,0,0,0,0.00,0.00,0.00,0.00
2017-01-25 01:10:00,2,28530,0,0.00,2,2,0,2,21627,43097,6452,26199,0,0,0,0,0.00,0.00,0.00,0.00
2017-01-25 01:20:00,2,19930,0,0.00,2,2,0,2,8227,31663,6116,20137,0,0,0,0,0.00,0.00,0.00,0.00
2017-01-25 01:30:00,2,34585,0,0.00,2,2,0,2,10554,44206,8611,36442,0,0,0,0,0.00,0.00,0.00,0.00
2017-01-25 01:40:00,2,23349,0,0.00,2,2,0,2,12357,27443,4074,24378,0,0,0,0,0.00,0.00,0.00,0.00
2017-01-25 01:50:00,2,22274,0,0.00,2,2,0,2,19101,27005,2243,22016,0,0,0,0,0.00,0.00,0.00,0.00
2017-01-25 02:00:00,2,26050,0,0.00,2,2,0,2,18841,35269,5570,25806,0,0,0,0,0.00,0.00,0.00,0.00
2017-01-25 02:10:00,2,36482,0,0.00,2,2,0,2,30654,44112,3809,36280,0,0,0,0,0.00,0.00,0.00,0.00
2017-01-25 02:20:00,2,32071,0,0.00,2,2,0,2,23666,39822,5193,31646,0,0,0,0,0.00,0.00,0.00,0.00
2017-01-25 02:30:00,2,16633,0,0.00,2,2,0,2,10959,23170,3622,17460,0,0,0,0,0.00,0.00,0.00,0.00
2017-01-25 02:40:00,2,8238,6,0.00,2,2,0,2,4075,13834,2962,7718,0,10,5,10,0.00,0.00,0.00,0.00
2017-01-25 02:50:00,2,6361,10,0.00,2,2,0,2,3119,9991,2014,6702,10,10,0,10,0.00,0.00,0.00,0.00
2017-01-25 03:00:00,2,7083,10,0.00,2,2,0,2,3771,11385,2371,6708,10,10,0,10,0.00,0.00,0.00,0.00
2017-01-25 03:10:00,2,14120,10,0.00,2,2,0,2,4707,22349,5304,13272,10,10,0,10,0.00,0.00,0.00,0.00
2017-01-25 03:20:00,2,24155,1,0.00,2,2,0,2,20626,27007,2004,24961,0,10,3,0,0.00,0.00,0.00,0.00
2017-01-25 03:30:00,2,29982,0,0.00,2,2,0,2,21354,38478,5962,30706,0,0,0,0,0.00,0.00,0.00,0.00
2017-01-25 03:40:00,2,32734,0,0.00,2,2,0,2,14734,39748,7720,35523,0,0,0,0,0.00,0.00,0.00,0.00
2017-01-25 03:50:00,2,17470,0,0.00,2,2,0,2,12410,22447,3259,16686,0,0,0,0,0.00,0.00,0.00,0.00
2017-01-25 04:00:00,2,18988,0,0.00,2,2,0,2,14431,21957,2547,19256,0,0,0,0,0.00,0.00,0.00,0.00
2017-01-25 04:10:00,2,23381,0,0.00,2,2,0,2,16159,34810,6307,21791,0,0,0,0,0.00,0.00,0.00,0.00
2017-01-25 04:20:00,2,37968,0,0.00,2,2,0,2,25909,45476,6540,39456,0,0,0,0,0.00,0.00,0.00,0.00
2017-01-25 04:30:00,2,44904,0,0.00,2,2,0,2,39519,49568,3377,44953,0,0,0,0,0.00,0.00,0.00,0.00
2017-01-25 04:40:00,2,23137,0,0.00,2,2,0,2,12445,36406,7040,23806,0,0,0,0,0.00,0.00,0.00,0.00
2017-01-25 04:50:00,2,27538,0,0.00,2,2,0,2,17678,39353,6465,27098,0,0,0,0,0.00,0.00,0.00,0.00
2017-01-25 05:00:00,2,29740,0,0.00,2,2,0,2,24760,34569,2989,29954,0,0,0,0,0.00,0.00,0.00,0.00
2017-01-25 05:10:00,2,29688,0,0.00,2,2,0,2,23147,34497,4296,31584,0,0,0,0,0.00,0.00,0.00,0.00
2017-01-25 05:20:00,2,26093,0,0.00,2,2,0,2,18066,33415,4781,26776,0,0,0,0,0.00,0.00,0.00,0.00
2017-01-25 05:30:00,2,25306,0,0.00,2,2,0,2,17938,31955,5157,24669,0,0,0,0,0.00,0.00,0.00,0.00
2017-01-25 05:40:00,2,36427,0,0.00,2,2,0,2,25174,42117,4714,36510,0,0,0,0,0.00,0.00,0.00,0.00
2017-01-25 05:50:00,2,22499,0,0.00,2,2,0,2,12652,42090,11839,14476,0,0,0,0,0.00,0.00,0.00,0.00
2017-01-25 06:00:00,2,13832,0,0.00,2,2,0,2,9439,18504,2819,13146,0,0,0,0,0.00,0.00,0.00,0.00
2017-01-25 06:10:00,2,21568,0,0.00,2,2,0,2,14854,26885,4523,21960,0,0,0,0,0.00,0.00,0.00,0.00
2017-01-25 06:20:00,2,18614,0,0.00,2,2,0,2,15721,23679,2683,17970,0,0,0,0,0.00,0.00,0.00,0.00
2017-01-25 06:30:00,2,16124,0,0.00,2,2,0,2,14159,19152,1587,15879,0,0,0,0,0.00,0.00,0.00,0.00
2017-01-25 06:40:00,2,14792,0,0.00,2,2,0,2,10877,20689,3628,13908,0,0,0,0,0.00,0.00,0.00,0.00
2017-01-25 06:50:00,2,17031,0,0.00,2,2,0,2,13085,20704,2443,16358,0,0,0,0,0.00,0.00,0.00,0.00
2017-01-25 07:00:00,2,18655,0,0.00,2,2,0,2,15903,21216,1759,18880,0,0,0,0,0.00,0.00,0.00,0.00
2017-01-25 07:10:00,2,20976,0,0.00,2,2,0,2,14600,23937,2508,21743,0,0,0,0,0.00,0.00,0.00,0.00
2017-01-25 07:20:00,2,24255,0,0.00,2,2,0,2,15627,35054,6290,24411,0,0,0,0,0.00,0.00,0.00,0.00
2017-01-25 07:30:00,2,36525,0,0.00,2,2,0,2,33924,40656,2315,35822,0,0,0,0,0.00,0.00,0.00,0.00
2017-01-25 07:40:00,2,40605,0,0.00,2,2,0,2,34918,47834,3504,40212,0,0,0,0,0.00,0.00,0.00,0.00
2017-01-25 07:50:00,2,38426,0,0.00,2,2,0,2,34766,43016,2494,38732,0,0,0,0,0.00,0.00,0.00,0.00
2017-01-25 08:00:00,2,25316,0,0.00,2,2,0,2,17288,34677,6209,23996,0,0,0,0,0.00,0.00,0.00,0.00
2017-01-25 08:10:00,2,31507,0,0.00,2,2,0,2,24697,39304,4511,30528,0,0,0,0,0.00,0.00,0.00,0.00
2017-01-25 08:20:00,2,37302,0,0.00,2,2,0,2,28660,43956,5967,39444,0,0,0,0,0.00,0.00,0.00,0.00
2017-01-25 08:30:00,2,20490,0,0.00,2,2,0,2,11345,35336,9148,15528,0,0,0,0,0.00,0.00,0.00,0.00
2017-01-25 08:40:00,2,10653,0,0.00,2,2,0,2,7929,15195,2008,10654,0,0,0,0,0.00,0.00,0.00,0.00
2017-01-25 08:50:00,2,10370,77,0.00,2,2,0,2,5672,13537,2535,10578,71,78,3,78,0.00,0.00,0.00,0.00
2017-01-25 09:00:00,2,10266,78,0.00,2,2,0,2,8532,13306,1793,9236,78,78,0,78,0.00,0.00,0.00,0.00
2017-01-25 09:10:00,2,11136,78,0.00,2,2,0,2,9324,13567,1375,10522,78,78,0,78,0.00,0.00,0.00,0.00
2017-01-25 09:20:00,2,8719,78,0.00,2,2,0,2,6941,10995,1185,8392,78,78,0,78,0.00,0.00,0.00,0.00
2017-01-25 09:30:00,2,5720,77,0.04,2,2,0,2,4612,6842,777,5940,71,78,2,78,0.00,0.15,0.06,0.03
2017-01-25 09:40:00,2,4077,71,0.20,2,2,0,2,3037,5349,616,3992,71,71,0,71,0.10,0.40,0.09,0.20
2017-01-25 09:50:00,2,2665,71,0.57,2,2,0,2,2222,3314,319,2732,71,71,0,71,0.15,1.00,0.24,0.55
2017-01-25 10:00:00,2,2277,71,0.82,2,2,0,2,2116,2472,116,2254,71,71,0,71,0.45,1.20,0.23,0.80
2017-01-25 10:10:00,2,2484,71,0.57,2,2,0,2,2342,2655,93,2482,71,71,0,71,0.35,1.00,0.20,0.53
2017-01-25 10:20:00,2,2510,71,0.31,2,2,0,2,2228,2811,189,2501,71,71,0,71,0.25,0.45,0.06,0.30
2017-01-25 10:30:00,2,2278,73,0.23,2,2,0,2,2011,2618,194,2345,71,77,3,71,0.15,0.30,0.04,0.23
2017-01-25 10:40:00,2,2612,78,0.15,2,2,0,2,2150,3568,361,2568,77,78,0,78,0.05,0.30,0.06,0.15
2017-01-25 10:50:00,2,4455,78,0.04,2,2,0,2,3765,5404,493,4538,77,78,0,78,0.00,0.05,0.02,0.05
2017-01-25 11:00:00,2,4600,78,0.02,2,2,0,2,3535,6039,828,4297,78,78,0,78,0.00,0.05,0.02,0.00
2017-01-25 11:10:00,2,4365,78,0.04,2,2,0,2,3807,5304,448,4286,78,78,0,78,0.00,0.05,0.02,0.05
2017-01-25 11:20:00,2,4089,78,0.03,2,2,0,2,2674,5507,1163,3790,78,78,0,78,0.00,0.05,0.02,0.05
2017-01-25 11:30:00,2,4786,78,0.01,2,2,0,2,3450,5404,569,4926,78,78,0,78,0.00,0.05,0.02,0.00
2017-01-25 11:40:00,2,3094,78,0.02,2,2,0,2,2643,3855,370,3037,77,78,0,78,0.00,0.05,0.02,0.00
2017-01-25 11:50:00,2,2818,78,0.06,2,2,0,2,1990,4108,624,2736,77,78,0,78,0.00,0.10,0.03,0.05
2017-01-25 12:00:00,2,3403,78,0.03,2,2,0,2,1930,5060,1059,3608,78,78,0,78,0.00,0.10,0.04,0.00
2017-01-25 12:10:00,2,4485,51,0.00,2,2,0,2,2666,8528,1568,4328,10,78,33,78,0.00,0.00,0.00,0.00
2017-01-25 12:20:00,2,9486,10,0.00,2,2,0,2,8347,10967,722,9484,10,10,0,10,0.00,0.00,0.00,0.00
2017-01-25 12:30:00,2,7728,10,0.00,2,2,0,2,7302,8989,459,7600,10,10,0,10,0.00,0.00,0.00,0.00
2017-01-25 12:40:00,2,9288,10,0.00,2,2,0,2,7136,10670,1125,9573,10,10,0,10,0.00,0.00,0.00,0.00
2017-01-25 12:50:00,2,12603,6,0.00,2,2,0,2,10299,14463,1483,12784,0,10,5,10,0.00,0.00,0.00,0.00
2017-01-25 13:00:00,2,9559,0,0.00,2,2,0,2,8767,10166,481,9760,0,0,0,0,0.00,0.00,0.00,0.00
2017-01-25 13:10:00,2,10365,0,0.00,2,2,0,2,9247,12101,756,10228,0,0,0,0,0.00,0.00,0.00,0.00
2017-01-25 13:20:00,2,17106,0,0.00,2,2,0,2,13478,22724,3228,16304,0,0,0,0,0.00,0.00,0.00,0.00
2017-01-25 13:30:00,2,27304,0,0.00,2,2,0,2,17191,32928,5971,29951,0,0,0,0,0.00,0.00,0.00,0.00
2017-01-25 13:40:00,2,16806,0,0.00,2,2,0,2,10846,25188,5183,14374,0,0,0,0,0.00,0.00,0.00,0.00
2017-01-25 13:50:00,2,10446,0,0.00,2,2,0,2,8921,11867,1106,10797,0,0,0,0,0.00,0.00,0.00,0.00
2017-01-25 14:00:00,2,9491,0,0.00,2,2,0,2,8257,11492,1104,9024,0,0,0,0,0.00,0.00,0.00,0.00
2017-01-25 14:10:00,2,9653,0,0.00,2,2,0,2,8797,10343,535,9614,0,0,0,0,0.00,0.00,0.00,0.00
2017-01-25 14:20:00,2,9953,0,0.00,2,2,0,2,7532,11949,1333,10084,0,0,0,0,0.00,0.00,0.00,0.00
2017-01-25 14:30:00,2,10870,0,0.00,2,2,0,2,8800,12481,1223,11149,0,0,0,0,0.00,0.00,0.00,0.00
2017-01-25 14:40:00,2,11036,0,0.00,2,2,0,2,9159,12423,1033,11054,0,0,0,0,0.00,0.00,0.00,0.00
2017-01-25 14:50:00,2,13538,0,0.00,2,2,0,2,9127,18024,3004,13150,0,0,0,0,0.00,0.00,0.00,0.00
2017-01-25 15:00:00,2,16001,0,0.00,2,2,0,2,15293,17392,669,15842,0,0,0,0,0.00,0.00,0.00,0.00
2017-01-25 15:10:00,2,13935,0,0.00,2,2,0,2,11719,17206,1664,14094,0,0,0,0,0.00,0.00,0.00,0.00
2017-01-25 15:20:00,2,11258,0,0.00,2,2,0,2,10408,12234,539,11474,0,0,0,0,0.00,0.00,0.00,0.00
2017-01-25 15:30:00,2,9677,0,0.00,2,2,0,2,6497,11887,1450,9456,0,0,0,0,0.00,0.00,0.00,0.00
2017-01-25 15:40:00,2,27388,61,0.00,2,2,0,2,8222,50000,13035,28995,0,78,31,78,0.00,0.00,0.00,0.00
2017-01-25 15:50:00,2,35609,0,0.00,2,2,0,2,16066,50000,11756,36336,0,0,0,0,0.00,0.00,0.00,0.00
2017-01-25 16:00:00,2,12031,0,0.00,2,2,0,2,10130,13795,1255,12324,0,0,0,0,0.00,0.00,0.00,0.00
2017-01-25 16:10:00,2,10361,0,0.00,2,2,0,2,9490,11304,554,10456,0,0,0,0,0.00,0.00,0.00,0.00
2017-01-25 16:20:00,2,16374,0,0.00,2,2,0,2,10984,24752,4473,16626,0,0,0,0,0.00,0.00,0.00,0.00
2017-01-25 16:30:00,2,12687,77,0.01,2,2,0,2,8475,18720,3448,13394,71,78,3,78,0.00,0.05,0.02,0.00
2017-01-25 16:40:00,2,6743,78,0.12,2,2,0,2,5103,7869,936,6739,78,78,0,78,0.00,0.30,0.09,0.10
2017-01-25 16:50:00,2,5125,72,0.51,2,2,0,2,3229,6677,1260,5346,71,77,2,71,0.25,0.90,0.19,0.55
2017-01-25 17:00:00,2,4488,71,0.40,2,2,0,2,3581,5349,533,4604,71,71,0,71,0.15,1.00,0.25,0.35
2017-01-25 17:10:00,2,4267,72,0.24,2,2,0,2,3659,5137,408,4222,71,77,2,71,0.15,0.40,0.09,0.20
2017-01-25 17:20:00,2,4810,78,0.06,2,2,0,2,3838,5534,508,4978,77,78,0,78,0.00,0.10,0.03,0.05
2017-01-25 17:30:00,2,4675,77,0.07,2,2,0,2,4113,6113,593,4472,77,78,0,77,0.00,0.15,0.05,0.08
2017-01-25 17:40:00,2,6518,78,0.03,2,2,0,2,5005,8211,940,6439,78,78,0,78,0.00,0.05,0.03,0.03
2017-01-25 17:50:00,2,8653,78,0.00,2,2,0,2,6012,9997,1082,8986,78,78,0,78,0.00,0.00,0.00,0.00
2017-01-25 18:00:00,2,5522,78,0.01,2,2,0,2,4135,7574,1065,5238,78,78,0,78,0.00,0.05,0.02,0.00
2017-01-25 18:10:00,2,7683,78,0.01,2,2,0,2,6767,9023,630,7710,78,78,0,78,0.00,0.05,0.02,0.00
2017-01-25 18:20:00,2,7648,78,0.04,2,2,0,2,7087,9122,571,7422,78,78,0,78,0.00,0.05,0.02,0.05
2017-01-25 18:30:00,2,7488,78,0.02,2,2,0,2,5408,10157,1472,7149,77,78,0,78,0.00,0.05,0.02,0.00
2017-01-25 18:40:00,2,7583,24,0.00,2,2,0,2,5457,9276,1338,7668,10,78,27,10,0.00,0.00,0.00,0.00
2017-01-25 18:50:00,2,5063,43,0.00,2,2,0,2,4371,5764,414,5112,10,78,33,40,0.00,0.00,0.00,0.00
2017-01-25 19:00:00,2,7179,78,0.00,2,2,0,2,4570,11004,2005,6208,78,78,0,78,0.00,0.00,0.00,0.00
2017-01-25 19:10:00,2,6994,10,0.00,2,2,0,2,4352,9485,1862,7794,10,10,0,10,0.00,0.00,0.00,0.00
2017-01-25 19:20:00,2,7917,10,0.00,2,2,0,2,3328,11763,2643,7556,10,10,0,10,0.00,0.00,0.00,0.00
2017-01-25 19:30:00,2,10192,10,0.00,2,2,0,2,7566,16007,2494,9657,10,10,0,10,0.00,0.00,0.00,0.00
2017-01-25 19:40:00,2,13026,10,0.00,2,2,0,2,8642,22596,4381,11417,10,10,0,10,0.00,0.00,0.00,0.00
2017-01-25 19:50:00,2,18462,0,0.00,2,2,0,2,8389,31244,8225,15796,0,0,0,0,0.00,0.00,0.00,0.00
2017-01-25 20:00:00,2,25888,0,0.00,2,2,0,2,13294,33302,6177,28340,0,0,0,0,0.00,0.00,0.00,0.00
2017-01-25 20:10:00,2,41182,0,0.00,2,2,0,2,35141,50000,4141,41138,0,0,0,0,0.00,0.00,0.00,0.00
2017-01-25 20:20:00,2,42074,0,0.00,2,2,0,2,36931,46335,2881,42619,0,0,0,0,0.00,0.00,0.00,0.00
2017-01-25 20:30:00,2,44863,0,0.00,2,2,0,2,40123,50000,3519,44852,0,0,0,0,0.00,0.00,0.00,0.00
2017-01-25 20:40:00,2,36320,7,0.00,2,2,0,2,18123,50000,10855,33804,0,71,21,0,0.00,0.00,0.00,0.00
2017-01-25 20:50:00,2,11262,77,0.01,2,2,0,2,8055,15551,2399,10386,71,78,2,78,0.00,0.05,0.02,0.00
2017-01-25 21:00:00,2,7559,78,0.00,2,2,0,2,5786,9358,1179,7636,78,78,0,78,0.00,0.00,0.00,0.00
2017-01-25 21:10:00,2,5644,78,0.00,2,2,0,2,3776,8454,1269,5472,78,78,0,78,0.00,0.00,0.00,0.00
2017-01-25 21:20:00,2,6458,35,0.00,2,2,0,2,5462,8189,818,6260,10,78,33,10,0.00,0.00,0.00,0.00
2017-01-25 21:30:00,2,6133,46,0.00,2,2,0,2,5197,7622,740,6049,10,78,32,71,0.00,0.00,0.00,0.00
2017-01-25 21:40:00,2,7238,53,0.00,2,2,0,2,5101,9537,1204,6992,10,78,33,78,0.00,0.00,0.00,0.00
2017-01-25 21:50:00,2,7651,10,0.00,2,2,0,2,6674,8500,656,7748,10,10,0,10,0.00,0.00,0.00,0.00
2017-01-25 22:00:00,2,9372,10,0.00,2,2,0,2,7486,11178,1251,9482,10,10,0,10,0.00,0.00,0.00,0.00
2017-01-25 22:10:00,2,9791,10,0.00,2,2,0,2,7601,11289,1041,9799,10,10,0,10,0.00,0.00,0.00,0.00
2017-01-25 22:20:00,2,11779,7,0.00,2,2,0,2,9093,13873,1481,11730,0,10,5,10,0.00,0.00,0.00,0.00
2017-01-25 22:30:00,2,8400,2,0.00,2,2,0,2,5869,12080,1808,7884,0,10,4,0,0.00,0.00,0.00,0.00
2017-01-25 22:40:00,2,7158,10,0.00,2,2,0,2,4487,11908,2142,7176,10,10,0,10,0.00,0.00,0.00,0.00
2017-01-25 22:50:00,2,30584,6,0.00,2,2,0,2,15887,40985,8011,33112,0,10,5,10,0.00,0.00,0.00,0.00
2017-01-25 23:00:00,2,43848,0,0.00,2,2,0,2,38126,50000,4256,43004,0,0,0,0,0.00,0.00,0.00,0.00
2017-01-25 23:10:00,2,35863,0,0.00,2,2,0,2,29364,42598,4144,36550,0,0,0,0,0.00,0.00,0.00,0.00
2017-01-25 23:20:00,2,32698,0,0.00,2,2,0,2,23393,42661,8244,32818,0,0,0,0,0.00,0.00,0.00,0.00
2017-01-25 23:30:00,2,40967,0,0.00,2,2,0,2,36480,50000,3971,40152,0,0,0,0,0.00,0.00,0.00,0.00
2017-01-25 23:40:00,2,49289,0,0.00,2,2,0,2,47200,50000,1113,50000,0,0,0,0,0.00,0.00,0.00,0.00
2017-01-25 23:50:00,2,30375,0,0.00,2,2,0,2,9597,50000,16932,25766,0,0,0,0,0.00,0.00,0.00,0.00
